Pawtucket, RI

4:16 AM EDT on April 20, 2018 (GMT -0400)
North Central State

Weather History for KSFZ - August, 2013

Change the Weather History Date:

Friday, August 16, 2013

  Actual Average Record
Temperature  
Mean Temperature 66 °F -  
Max Temperature 75 °F 76 °F 91 °F (2002)
Min Temperature 57 °F 60 °F 53 °F (2014)
Cooling Degree Days 1    
Growing Degree Days 16 (Base 50)    
Moisture  
Dew Point 53 °F    
Average Humidity 59    
Maximum Humidity 82    
Minimum Humidity 44    
Precipitation  
Precipitation 0.00 in - - ()
Sea Level Pressure  
Sea Level Pressure 30.19 in    
Wind  
Wind Speed 5 mph (WSW)    
Max Wind Speed 12 mph    
Max Gust Speed 16 mph    
Visibility 10 miles    
Events      
Averages and records for this station are not official NWS values.
T = Trace of Precipitation, MM = Missing Value Source: NWS Daily Summary

Daily Weather History Graph

Daily Weather History Graph

Search for Another Location

Airport or City:

Astronomy

Aug. 16, 2013 Rise Set
Actual Time 5:55 AM EDT 7:44 PM EDT
Civil Twilight 5:25 AM EDT 8:14 PM EDT
Nautical Twilight 4:48 AM EDT 8:50 PM EDT
Astronomical Twilight 4:09 AM EDT 9:29 PM EDT
Moon 4:02 PM EDT (8/16) 12:53 AM EDT (8/16)
Length of Visible Light 14h 48m
Length of Day
13h 49m
Waxing Gibbous, 74% of the Moon is Illuminated
Aug 16
Waxing Gibbous
Aug 20
Full
Aug 28
Last Quarter
Sep 5
New
Sep 12
First Quarter

Hourly Weather History & Observations

Time (EDT) Temp. Dew Point Humidity Pressure Visibility Wind Dir Wind Speed Gust Speed Precip Events Conditions
7:55 AM 60.8 °F 53.6 °F 77% 30.18 in 10.0 mi WSW 3.5 mph - N/A   Clear
8:15 AM 64.4 °F 53.6 °F 68% 30.18 in 10.0 mi West 4.6 mph - N/A   Clear
8:35 AM 66.2 °F 55.4 °F 68% 30.17 in 10.0 mi Calm Calm - N/A   Clear
8:55 AM 66.2 °F 53.6 °F 64% 30.17 in 10.0 mi West 5.8 mph - N/A   Clear
9:15 AM 68.0 °F 53.6 °F 60% 30.18 in 10.0 mi West 6.9 mph - N/A   Clear
9:35 AM 69.8 °F 53.6 °F 56% 30.18 in 10.0 mi West 5.8 mph - N/A   Clear
9:55 AM 69.8 °F 53.6 °F 56% 30.18 in 10.0 mi West 9.2 mph - N/A   Clear
10:15 AM 71.6 °F 51.8 °F 50% 30.19 in 10.0 mi West 9.2 mph - N/A   Clear
10:35 AM 71.6 °F 51.8 °F 50% 30.19 in 10.0 mi West 5.8 mph - N/A   Clear
10:55 AM 73.4 °F 51.8 °F 47% 30.19 in 10.0 mi West 4.6 mph - N/A   Clear
11:15 AM 73.4 °F 53.6 °F 50% 30.19 in 10.0 mi WSW 4.6 mph - N/A   Clear
11:35 AM 73.4 °F 53.6 °F 50% 30.19 in 10.0 mi West 5.8 mph - N/A   Partly Cloudy
11:55 AM 73.4 °F 51.8 °F 47% 30.19 in 10.0 mi West 6.9 mph - N/A   Scattered Clouds
12:15 PM 73.4 °F 53.6 °F 50% 30.19 in 10.0 mi WNW 11.5 mph 16.1 mph N/A   Partly Cloudy
12:35 PM 73.4 °F 51.8 °F 47% 30.19 in 10.0 mi West 5.8 mph - N/A   Clear
12:55 PM 75.2 °F 53.6 °F 47% 30.19 in 10.0 mi SW 5.8 mph - N/A   Scattered Clouds
1:15 PM 73.4 °F 53.6 °F 50% 30.19 in 10.0 mi SW 5.8 mph - N/A   Partly Cloudy
1:35 PM 73.4 °F 51.8 °F 47% 30.19 in 10.0 mi Calm Calm - N/A   Scattered Clouds
1:55 PM 73.4 °F 53.6 °F 50% 30.19 in 10.0 mi WSW 3.5 mph - N/A   Mostly Cloudy
2:15 PM 75.2 °F 53.6 °F 47% 30.18 in 10.0 mi SW 3.5 mph - N/A   Partly Cloudy
2:35 PM 75.2 °F 55.4 °F 50% 30.18 in 10.0 mi SW 4.6 mph - N/A   Clear
2:55 PM 75.2 °F 51.8 °F 44% 30.18 in 10.0 mi West 10.4 mph 16.1 mph N/A   Clear
3:15 PM 73.4 °F 51.8 °F 47% 30.18 in 10.0 mi WSW 5.8 mph - N/A   Scattered Clouds
3:35 PM 75.2 °F 53.6 °F 47% 30.17 in 10.0 mi SW 4.6 mph - N/A   Mostly Cloudy
3:55 PM 75.2 °F 51.8 °F 44% 30.17 in 10.0 mi Calm Calm - N/A   Partly Cloudy
4:15 PM 75.2 °F 51.8 °F 44% 30.17 in 10.0 mi WSW 8.1 mph - N/A   Clear
4:35 PM 75.2 °F 53.6 °F 47% 30.17 in 10.0 mi Calm Calm - N/A   Clear
4:55 PM 75.2 °F 51.8 °F 44% 30.17 in 10.0 mi West 3.5 mph - N/A   Clear
5:15 PM 75.2 °F 51.8 °F 44% 30.17 in 10.0 mi Calm Calm - N/A   Clear
5:35 PM 73.4 °F 53.6 °F 50% 30.17 in 10.0 mi WNW 5.8 mph - N/A   Clear
5:55 PM 73.4 °F 53.6 °F 50% 30.18 in 10.0 mi West 5.8 mph - N/A   Clear
6:15 PM 73.4 °F 55.4 °F 53% 30.18 in 10.0 mi West 5.8 mph - N/A   Clear
6:35 PM 71.6 °F 53.6 °F 53% 30.18 in 10.0 mi West 6.9 mph - N/A   Clear
6:55 PM 69.8 °F 55.4 °F 60% 30.19 in 10.0 mi West 3.5 mph - N/A   Clear
7:15 PM 66.2 °F 57.2 °F 73% 30.19 in 10.0 mi SW 3.5 mph - N/A   Clear
7:35 PM 64.4 °F 55.4 °F 73% 30.19 in 10.0 mi Calm Calm - N/A   Clear
7:55 PM 66.2 °F 55.4 °F 68% 30.19 in 10.0 mi SSW 3.5 mph - N/A   Clear
8:15 PM 64.4 °F 53.6 °F 68% 30.20 in 9.0 mi SSW 3.5 mph - N/A   Clear
8:35 PM 62.6 °F 53.6 °F 72% 30.21 in 10.0 mi SSW 3.5 mph - N/A   Clear
8:55 PM 62.6 °F 53.6 °F 72% 30.22 in 10.0 mi SSW 3.5 mph - N/A   Clear
9:15 PM 60.8 °F 53.6 °F 77% 30.22 in 10.0 mi SW 3.5 mph - N/A   Clear
9:35 PM 60.8 °F 53.6 °F 77% 30.23 in 10.0 mi SSW 3.5 mph - N/A   Clear
9:55 PM 60.8 °F 53.6 °F 77% 30.22 in 10.0 mi SW 3.5 mph - N/A   Clear
10:15 PM 60.8 °F 51.8 °F 72% 30.23 in 10.0 mi SW 3.5 mph - N/A   Clear
10:35 PM 60.8 °F 53.6 °F 77% 30.23 in 10.0 mi SW 3.5 mph - N/A   Clear
10:55 PM 60.8 °F 51.8 °F 72% 30.23 in 10.0 mi Calm Calm - N/A   Clear
11:15 PM 59.0 °F 51.8 °F 77% 30.23 in 10.0 mi SW 3.5 mph - N/A   Clear
11:35 PM 57.2 °F 51.8 °F 82% 30.23 in 10.0 mi Calm Calm - N/A   Clear
11:55 PM 57.2 °F 51.8 °F 82% 30.23 in 10.0 mi SW 3.5 mph - N/A   Clear